Regional Weather Roundup
Issued by NWS

Home | Current Version | Previous Version | Graphics & Text | Print | Product List | Glossary On
Versions: 1 2 3 4 5 6 7 8 9 10 11 12 13 14 15 16 17 18 19 20 21 22 23 24 25 26 27 28 29 30 31 32 33 34 35 36 37 38 39 40 41 42 43 44 45 46 47 48 49 50
438
ASUS45 KTFX 250910
RWRMT
MONTANA REGIONAL WEATHER ROUNDUP
NATIONAL WEATHER SERVICE GREAT FALLS MT
300 AM MDT THU MAY 25 2017

NOTE: "FAIR" INDICATES FEW OR NO CLOUDS BELOW 12000 FEET WITH NO
SIGNIFICANT WEATHER AND/OR OBSTRUCTIONS TO VISIBILITY.

MTZ001>007-043-251000-
WEST OF THE DIVIDE

CITY           SKY/WX    TMP DP  RH WIND       PRES   REMARKS
KALISPELL      CLOUDY    43  41  93 CALM      29.72R
MISSOULA       CLOUDY    46  34  62 NW5       29.73S
BUTTE          CLOUDY    41  21  44 NW6       29.71R
MULLAN PASS    CLOUDY    33  28  81 VRB3      29.74S
ANACONDA         N/A     43  21  42 W10       29.70F
DEER LODGE       N/A     45  25  45 NW9       29.71F
EUREKA           N/A     45  39  81 CALM      29.73R
HAMILTON         N/A     46  28  49 CALM      29.73F
RONAN            N/A     42  35  76 CALM      29.79S
$$

MTZ008-052>055-251000-
SOUTHWEST MONTANA

CITY           SKY/WX    TMP DP  RH WIND       PRES   REMARKS
BOZEMAN        CLEAR     38  24  57 SW7       29.67R
DILLON         CLEAR     33  19  56 SE7       29.69S WCI  27
W YELLOWSTONE  CLOUDY    27  21  80 CALM      29.67R
ENNIS          PTCLDY    32  19  59 S5        29.73S
THREE FORKS      N/A     38  26  62 CALM      29.69S
$$

MTZ009-010-012-014-046-048-049-054-251000-
EAST SLOPES AND CENTRAL MONTANA

CITY           SKY/WX    TMP DP  RH WIND       PRES   REMARKS
CUT BANK       LGT RAIN  42  32  67 W31       29.54S
GREAT FALLS    LGT RAIN  41  37  86 W20       29.58S
MALMSTROM AFB  LGT RAIN  42  40  91 W17G31    29.59R
HELENA         CLOUDY    49  28  44 W12G22    29.64S
BOWMANS CRNR   LGT RAIN  41  34  75 SW9       29.60R
CHOTEAU          N/A     48  30  49 W15G22    29.59R
CONRAD           N/A     44  44 100 W28       29.61R
$$

MTZ011-013-016-021-045-047-050-051-251000-
NORTH CENTRAL MONTANA

CITY           SKY/WX    TMP DP  RH WIND       PRES   REMARKS
HAVRE          CLOUDY    45  44  97 W26G37    29.35R FOG
LEWISTOWN      CLOUDY    43  34  70 W20G28    29.52R
N BAR RANCH      N/A     43  30  61 W21G26    29.49F
CHINOOK          N/A     46  45  93 SW22G29   29.31R
FORT BENTON      N/A     46  39  76 CALM      29.51R
GEYSER         LGT RAIN  41  37  87 W29G38    29.52S
WINIFRED       LGT RAIN  42  38  86 W24G33    29.46F
$$

MTZ017>020-022>027-061-062-251000-
NORTHEAST MONTANA

CITY           SKY/WX    TMP DP  RH WIND       PRES   REMARKS
GLASGOW        MOCLDY    50  26  39 SW15      29.34F
JORDAN           N/A     52  26  36 W21G31    29.42R
SIDNEY         PTCLDY    47  46  97 SW9       29.40
WOLF POINT     CLEAR     41  27  57 SE3       29.35F
MALTA          CLOUDY    50  41  71 W26G39    29.29F
PLENTYWOOD       N/A     43  30  61 S5        29.34R
POPLAR           N/A     48  25  40 SW9       29.36F
$$

MTZ028>42-056>058-251000-
SOUTHCENTRAL AND SOUTHEAST MONTANA

CITY           SKY/WX    TMP DP  RH WIND       PRES   REMARKS
BAKER          CLEAR     43  41  93 CALM      29.44S
BILLINGS       CLEAR     48  21  34 W14       29.53F
LIVINGSTON     CLEAR     43  21  41 SW22G30   29.61S
MILES CITY     PTCLDY    40  22  48 SW9       29.46R
BIG TIMBER     CLEAR     45  21  39 W25G35    29.60R
FORSYTH          N/A     48  21  34 SW6       29.48R
LAUREL           N/A     50  19  29 SW14      29.57R
ROUNDUP          N/A     47  20  34 SW12      29.45F
$$

REGIONAL REPORTS...DAKOTAS

CITY           SKY/WX    TMP DP  RH WIND       PRES   REMARKS
WILLISTON      PTCLDY    49  46  90 SW5       29.38R
MINOT          CLOUDY    54  49  83 SE9       29.40S
DICKINSON      CLOUDY    44  44 100 CALM      29.38R
BISMARCK       CLOUDY    53  48  83 SE7       29.42R
GRAND FORKS    PTCLDY    50  43  77 SE12      29.58F
FARGO          CLEAR     52  42  69 SE12      29.60F
BUFFALO SD       N/A     46  43  89 NW10      29.36S
RAPID CITY     PTCLDY    54  44  69 N18       29.41R
$$

REGIONAL REPORTS...WYOMING/IDAHO/WASHINGTON

CITY           SKY/WX    TMP DP  RH WIND       PRES   REMARKS
GILLETTE       MOCLDY    44  35  70 CALM      29.52R
SHERIDAN       PTCLDY    46  25  43 NW9       29.56R
BUFFALO WY     PTCLDY    47  26  44 N9        29.58R
CODY           CLEAR     44  19  36 NW7       29.58R
YELLOWSTONE LA   N/A     30  16  56 CALM      29.68R
IDAHO FALLS    PTCLDY    43  24  47 NW3       29.68R
SALMON         CLEAR     39  21  48 CALM      29.73S
BOISE          CLEAR     48  30  49 W10       29.72S
SPOKANE        MOCLDY    47  38  71 W6        29.75S
$$

REGIONAL REPORTS...ALBERTA

CITY           SKY/WX    TMP DP  RH WIND       PRES   REMARKS
EDMONTON       CLEAR     48  37  66 N13G21    29.59R
CALGARY        MOCLDY    48  37  66 NW28G36   29.59R
LETHBRIDGE     CLOUDY    48  45  87 NW16G28   29.54R
MEDICINE HAT   CLOUDY    48  45  87 NW24G36   29.33R
WATERTON GATE    N/A     39  36  87 SW15G22     N/A  WCI  31
CARDSTON         N/A     45  37  76 NW13G20     N/A
MILK RIVER       N/A     46  45  93 NW33G43     N/A
ONEFOUR          N/A     45  43  93 NW33G41     N/A
$$

REGIONAL REPORTS...SASKATCHEWAN

CITY           SKY/WX    TMP DP  RH WIND       PRES   REMARKS
SWIFT CURRENT  CLOUDY    43  41  93 W9        29.16R
REGINA         CLEAR     43  30  61 S9        29.25R
SASKATOON      CLOUDY    46  45  93 SE7       29.20R
CYPRESS HILLS    N/A     43  41  93 NW15G33     N/A
VAL MARIE        N/A     46  41  81 SW15        N/A
ROCKGLEN         N/A     43  32  65 S18         N/A
$$




USA.gov is the U.S. government's official web portal to all federal, state and local government web resources and services.